Weather Roundup
Issued by NWS Springfield, MO

Home | Current Version | Previous Version | Text Only | Print | Product List | Glossary On
Versions: 1 2 3 4 5 6 7 8 9 10 11 12 13 14 15 16 17 18 19 20 21 22 23 24 25 26 27 28 29 30 31 32 33 34 35 36 37 38 39 40 41 42 43 44 45 46 47 48 49 50
000
NZUS99 KSGF 252107
HRRSGF

HOURLY WEATHER
NATIONAL WEATHER SERVICE SPRINGFIELD MO
400 PM CDT FRI JUL 25 2014

......SGF CWA......

CITY           SKY/WX    TMP DP  RH WIND       PRES   REMARKS
SPRINGFIELD    SUNNY     92  68  45 S16       29.94F HX  96
JOPLIN         SUNNY     92  69  47 S18       29.91F HX  97
WEST PLAINS    MOSUNNY   84  65  52 S7        30.03R
ROLLA          MOSUNNY   89  65  44 SE15G22   29.94F HX  91
OSAGE BEACH    SUNNY     93  68  43 S10       29.91F HX  97
BRANSON        MOSUNNY   95  68  41 S8        29.99F HX  99

......SURROUNDING SGF CWA......

CITY           SKY/WX    TMP DP  RH WIND       PRES   REMARKS
CHANUTE        SUNNY     92  73  53 S17G31    29.85F HX 100
PARSONS        SUNNY     93  73  52 S15G26    29.88F HX 102
COFFEYVILLE    SUNNY     94  73  50 S17G26    29.86F HX 103
EMPORIA        MOSUNNY   99  67  35 S23G33    29.80F HX 103
GROVE OK       SUNNY     91  70  49 S12G20    29.93F HX  97
ROGERS AR      SUNNY     91  68  46 SW12      29.98F HX  95
SILOAM SPRINGS SUNNY     90  70  51 SW14      29.97F HX  95
HARRISON AR    SUNNY     87  72  60 S13       29.99F HX  93
NEAR YELLVILLE MOSUNNY   88  72  58 SE7       29.98F HX  94

......KANSAS AND MISSOURI......

CITY           SKY/WX    TMP DP  RH WIND       PRES   REMARKS
KANSAS CTY INT MOSUNNY   95  73  48 S21G28    29.78F HX 104
DOWNTOWN KC    SUNNY     98  71  41 S18G24    29.78F HX 106
COLUMBIA       MOSUNNY   85  68  56 S15G22    29.89F
SEDALIA        SUNNY     95  71  45 S15G23    29.87F HX 102
ST JOSEPH      SUNNY     94  75  54 S12       29.75F HX 105
ST LOUIS       CLOUDY    75  62  64 S18G24    29.95F
SPIRIT OF STL  CLOUDY    75  63  66 S10G16    29.94F
KIRKSVILLE     CLOUDY    74  66  76 SE15      29.87F
WICHITA        MOSUNNY  102  62  26 SW23      29.81F HX 104
TOPEKA         MOSUNNY  102  67  31 S18G28    29.76F HX 107
OLATHE         SUNNY     95  70  44 SW14G23   29.81F HX 101

......TENNESSEE......

CITY           SKY/WX    TMP DP  RH WIND       PRES   REMARKS
MEMPHIS        MOSUNNY   86  61  42 NW6       30.00F
NASHVILLE      PTSUNNY   86  55  34 CALM      30.01F

......ARKANSAS.......

CITY           SKY/WX    TMP DP  RH WIND       PRES   REMARKS
FAYETTEVILLE   SUNNY     87  70  56 S13       29.98F HX  92
FT SMITH       SUNNY     91  70  49 SW8       29.94F HX  96
LITTLE ROCK    MOSUNNY   87  67  51 VRB3      29.99F HX  90

......OKLAHOMA.......

CITY           SKY/WX    TMP DP  RH WIND       PRES   REMARKS
TULSA          SUNNY     95  72  47 S16G24    29.87F HX 103
PONCA CITY     SUNNY     98  70  40 S12G22    29.84F HX 105
MCALESTER      SUNNY     91  73  55 S6        29.95F HX  99
OKLAHOMA CITY  SUNNY     99  65  32 S18G26    29.90F HX 102

......IOWA............

CITY           SKY/WX    TMP DP  RH WIND       PRES   REMARKS
DES MOINES     PTSUNNY   79  67  66 S12       29.80F
QUAD CITIES    CLOUDY    75  64  68 S9        29.89R

......ILLINOIS........

CITY           SKY/WX    TMP DP  RH WIND       PRES   REMARKS
QUINCY         SUNNY     75  61  61 S20G28    29.85F
CHICAGO        CLOUDY    74  56  53 SW13      29.94F



USA.gov is the U.S. government's official web portal to all federal, state and local government web resources and services.